Location: Chimay
(50.0486°N, 4.3171°E)
Time: 06:07:02
(UTC+00:00)

Cosmos 1066 Rocket - Pass Details

Date: 08 August 2020
Orbit: 798 x 895 km, 81.2° (Epoch: 23 September)

Event Time Altitude Azimuth Distance (km) Brightness Sun altitude
Rises 22:44:14 0° 347° (NNW) 3,491 8.9 -22.7°
Reaches altitude 10° 22:46:43 10° 349° (NNW) 2,536 7.8 -22.8°
Maximum altitude 22:52:30 85° 77° (ENE) 868 4.1 -23.0°
Enters shadow 22:53:53 54° 162° (SSE) 1,033 4.2 -23.1°
